Hourly Data Report for September 02, 2017

All times are specified in Local Standard Time (LST). Add 1 hour to adjust for Daylight Saving Time where and when it is observed.

CHARLOTTETOWN A
PRINCE EDWARD ISLAND

46°17'21.000" N
63°07'09.000" W
48.50 m
8300301
71706
YYG

Download Data

Hourly Data (September 2017)
Hourly Data Report for September 2, 2017
Temp Definition
°C
Dew Point Temp Definition
°C
Rel Hum Definition
%
Wind Dir Definition
10's deg

Wind Spd Definition
km/h
Visibility Definition
km
Stn Press Definition
kPa
Hmdx Definition


Wind Chill Definition


Weather Definition


TIME
00:00 Legend Double Dagger 9.8 7.5 86 27 14 24.1 100.26     LegendNANA
01:00 Legend Double Dagger 10.5 8.9 89 28 15 9.7 100.31     Rain Showers,Fog
02:00 Legend Double Dagger 10.6 9.5 93 28 21 9.7 100.36     Rain Showers,Fog
03:00 Legend Double Dagger 10.3 9.2 92 29 18 19.3 100.44     Rain Showers
04:00 Legend Double Dagger 10.1 8.8 92 28 20 24.1 100.52     LegendNANA
05:00 Legend Double Dagger 9.6 8.1 91 29 17 24.1 100.57     Mainly Clear
06:00 Legend Double Dagger 9.3 7.3 87 29 12 24.1 100.67     LegendNANA
07:00 Legend Double Dagger 9.6 7.4 86 28 15 19.3 100.76     LegendNANA
08:00 Legend Double Dagger 9.7 8.0 89 30 13 8.1 100.86     Rain Showers,Fog
09:00 Legend Double Dagger 10.3 8.7 89 31 16 12.9 100.93     Rain Showers
10:00 Legend Double Dagger 12.2 9.3 82 29 18 19.3 100.98     Rain Showers
11:00 Legend Double Dagger 11.6 7.5 76 31 28 24.1 101.03     Rain Showers
12:00 Legend Double Dagger 11.3 8.4 82 32 21 19.3 101.10     Rain Showers
13:00 Legend Double Dagger 11.7 7.4 75 33 27 16.1 101.16     Rain Showers
14:00 Legend Double Dagger 12.2 8.2 77 31 17 19.3 101.20     Rain Showers
15:00 Legend Double Dagger 12.3 7.9 74 30 16 24.1 101.25     LegendNANA
16:00 Legend Double Dagger 12.2 8.1 76 29 14 24.1 101.32     LegendNANA
17:00 Legend Double Dagger 12.5 8.3 75 27 14 24.1 101.38     Mostly Cloudy
18:00 Legend Double Dagger 13.2 8.2 71 30 11 24.1 101.43     LegendNANA
19:00 Legend Double Dagger 11.4 8.0 80 30 4 24.1 101.49     LegendNANA
20:00 Legend Double Dagger 8.7 6.3 85 30 4 24.1 101.58     Clear
21:00 Legend Double Dagger 10.3 8.1 86 24 5 24.1 101.64     LegendNANA
22:00 Legend Double Dagger 10.8 7.6 81 24 9 24.1 101.70     LegendNANA
23:00 Legend Double Dagger 9.8 6.8 81 26 8 24.1 101.71     Clear

Notes on Data Quality.

Legend

  • E = Estimated
  • M = Missing
  • NA = Not Available
  • ‡ = Partner data that is not subject to review by the National Climate Archives
Date modified: